Location: Shannon
(40.5500°S, 175.4167°E)
Time: 21:16:43
(UTC+00:00)

COSMOS 2428 - Pass Details

Date: 17 November 2025
Orbit: 847 x 852 km, 70.9° (Epoch: 14 December)

Event Time Altitude Azimuth Distance (km) Brightness Sun altitude
Rises 12:28:46 0° 204° (SSW) 3,454 6.7 -30.0°
Reaches altitude 10° 12:31:15 10° 203° (SSW) 2,511 5.8 -30.0°
Enters shadow 12:36:27 73° 199° (SSW) 901 2.8 -29.8°
